Showing default

COSMOS 2584(GLONASS), 63130

Orbit data source: Space-Track

COSMOS 2584(GLONASS), 63130 is a Commonwealth of Independent States-origin payload satellite in MEO that was launched on Sun, 02 Mar 2025 UTC via a SOYUZ-2-1B launch vehicle from the Plesetsk Missile And Space Complex (PKMTR). Payload-class satellites include a variety of spacecraft equipped with specific instruments for various scientific and technological missions. These include communications satellites like Starlink; space stations such as the ISS; scientific satellites like the Hubble; Earth observation satellites from companies like Planet Labs, Umbra, and HawkEye 360; GPS; miniature CubeSats for education and research; and military/defense satellites.

Loading next visibility...
Identifier
63130, 2025-042A
Orbit
MEO
Last TLE update
2 days ago
Origin
Manufacturer
Resehetnev ISS
Mission
Awaiting activation Defense Navigation
Bus & Motor
EKSPRESS-1000, AOCS
Mass
974 kg wet, ~800 kg dry
Launch date (UTC)
2025-03-02 (4 months ago)
Launch vehicle
SOYUZ-2-1B
Launch site
Plesetsk Missile And Space Complex (PKMTR)
Object type
Payload
Rocket body
Debris
Shape & HBR
Box + 2 Pan, 5 m
Radar Cross Section
3.585 m², Large (>1 m²)

Expand to show TLE details & history

TLE from 2 days ago
0 COSMOS 2584(GLONASS)
1 63130U 25042A   25184.95129280 -.00000053  00000-0  00000-0 0  9991
2 63130  64.8843  84.6586 0005980 221.1593 138.8321  2.13103937  2625
Epoch: 2025-07-03T22:49Z
TLE epoch observation values (Epoch: 2025-07-03T22:49:51.697Z)
Latitude
0.00001°
Longitude
179.99324°
Altitude
19,141.792 km
Speed
3.951 km/s
True Right ascension
05h 38m 40s
True Declination
0° 00' 00"
Sunlit
Object was in daylight at epoch
Visualization orbit readout
Latitude
-51.31064°
Longitude
144.21414°
Altitude
19,145.8 km
Speed
3.952 km/s
Apparent Right ascension
02h 17m 29s
Apparent Declination
-62° 13' 13"
Sunlit
Object is in daylight
Visualization observer readout
Local Sidereal Time
05:56:33
Azimuth
204.097° SW
Elevation
-21.19°
Doppler factor
1
Orbital elements
Apogee altitude
19,144.605 km
Perigee altitude
19,114.098 km
Semi-major axis
25,507.489 km
Eccentricity
0.0006
Inclination
64.8843°
RAAN
84.6586°
Arg. of periapsis
221.1593°
True anomaly
Unknown
Mean anomaly
138.8321°
Eccentric anomaly
Unknown
Mean motion
0.53277 °/min
Orbital period
675.71 mins
BSTAR
0
Loading maneuver chart data...
Loading SW <> Apogee altitude chart data...
Loading historical data...
Loading historical data...
Loading historical data...
Loading historical data...
Loading historical data...
Loading historical data...
Loading historical data...
Other satellites on launch #42 in the year 2025 (2025-03-02 UTC)

COSMOS 2584(GLONASS) Visibility forecast

Observer location: undefined°, undefined°

Span
Click to sort rows by Start time (UTC) header in descending order
Start Az.
Max El. time (UTC)
Max El. Az.
Max El.
End time (UTC)
End Az.
364 mins2025-07-05 19:14:05.326Z213.366° SW2025-07-05 21:50:05.326Z318.731° NNW41.687°2025-07-06 01:18:05.326Z103.172° ESE
27 mins2025-07-06 17:34:05.326Z190.936° SSW2025-07-06 18:01:05.326Z193.543° SSW22.808°2025-07-06 18:01:05.326Z193.543° SSW
|